When you browse on this site, cookies collect data to enhance your experience and personalize the content and advertising you see.
Visit our Privacy Policy to learn more. By continuing to use the site, you agree to this use of cookies and data.
  • In Hungary
  • List of Countries
  • For 7 days
  • Water Temperature
  • Satellite Maps
  • Weather Map
  • News
  • Weather Widgets
  • user-avatar
    Login

    Hourly Weather Tulare

    Today, 26 June, Wednesday

    Time Temperature Precipitation Wind Pressure Humidity
    00:00 +21°C° 0 mm 3 mps 750 mmHg 41%
    01:00 +20°C° 0 mm 3 mps 751 mmHg 45%
    02:00 +18°C° 0 mm 2 mps 751 mmHg 49%
    03:00 +17°C° 0 mm 2 mps 751 mmHg 54%
    04:00 +16°C° 0 mm 2 mps 751 mmHg 59%
    05:00 +18°C° 0 mm 2 mps 751 mmHg 53%
    06:00 +20°C° 0 mm 1 mps 751 mmHg 47%
    07:00 +22°C° 0 mm 1 mps 751 mmHg 41%
    08:00 +24°C° 0 mm 2 mps 751 mmHg 35%
    09:00 +27°C° 0 mm 2 mps 751 mmHg 29%
    10:00 +29°C° 0 mm 3 mps 751 mmHg 23%
    11:00 +31°C° 0 mm 3 mps 751 mmHg 21%
    12:00 +34°C° 0 mm 3 mps 751 mmHg 19%
    13:00 +35°C° 0 mm 3 mps 751 mmHg 16%
    14:00 +36°C° 0 mm 3 mps 751 mmHg 15%
    15:00 +36°C° 0 mm 3 mps 751 mmHg 13%
    16:00 +37°C° 0 mm 4 mps 751 mmHg 12%
    17:00 +35°C° 0 mm 3 mps 751 mmHg 15%
    18:00 +33°C° 0 mm 3 mps 751 mmHg 18%
    19:00 +29°C° 0 mm 3 mps 751 mmHg 21%
    20:00 +27°C° 0 mm 4 mps 752 mmHg 27%
    21:00 +25°C° 0 mm 5 mps 752 mmHg 33%
    22:00 +22°C° 0 mm 6 mps 753 mmHg 40%
    23:00 +20°C° 0 mm 5 mps 753 mmHg 43%

    Tomorrow, 27 June, Thursday

    Time Temperature Precipitation Wind Pressure Humidity
    00:00 +19°C° 0 mm 4 mps 753 mmHg 47%
    01:00 +17°C° 0 mm 3 mps 753 mmHg 50%
    02:00 +16°C° 0 mm 2 mps 753 mmHg 54%
    03:00 +15°C° 0 mm 2 mps 753 mmHg 57%
    04:00 +13°C° 0 mm 2 mps 753 mmHg 60%
    05:00 +15°C° 0 mm 2 mps 753 mmHg 56%
    06:00 +17°C° 0 mm 2 mps 754 mmHg 51%
    07:00 +18°C° 0 mm 2 mps 754 mmHg 47%
    08:00 +21°C° 0 mm 2 mps 754 mmHg 41%
    09:00 +25°C° 0 mm 2 mps 754 mmHg 34%
    10:00 +27°C° 0 mm 2 mps 754 mmHg 28%
    11:00 +29°C° 0 mm 2 mps 753 mmHg 26%
    12:00 +31°C° 0 mm 2 mps 753 mmHg 23%
    13:00 +32°C° 0 mm 2 mps 753 mmHg 21%
    14:00 +34°C° 0 mm 3 mps 753 mmHg 19%
    15:00 +35°C° 0 mm 3 mps 752 mmHg 17%
    16:00 +35°C° 0 mm 3 mps 752 mmHg 15%
    17:00 +33°C° 0 mm 3 mps 752 mmHg 18%
    18:00 +30°C° 0 mm 3 mps 752 mmHg 20%
    19:00 +28°C° 0 mm 3 mps 752 mmHg 22%
    20:00 +26°C° 0 mm 4 mps 753 mmHg 26%
    21:00 +23°C° 0 mm 4 mps 753 mmHg 29%
    22:00 +21°C° 0 mm 5 mps 753 mmHg 33%
    23:00 +20°C° 0 mm 4 mps 753 mmHg 37%

    Day after tomorrow, 28 June, Friday

    Time Temperature Precipitation Wind Pressure Humidity
    00:00 +19°C° 0 mm 4 mps 753 mmHg 41%
    01:00 +17°C° 0 mm 4 mps 753 mmHg 45%
    02:00 +16°C° 0 mm 3 mps 753 mmHg 51%
    03:00 +14°C° 0 mm 2 mps 753 mmHg 56%
    04:00 +13°C° 0 mm 1 mps 753 mmHg 62%
    05:00 +15°C° 0 mm 1 mps 753 mmHg 56%
    06:00 +17°C° 0 mm 2 mps 753 mmHg 50%
    07:00 +19°C° 0 mm 2 mps 754 mmHg 44%
    08:00 +21°C° 0 mm 2 mps 754 mmHg 38%
    09:00 +25°C° 0 mm 2 mps 753 mmHg 32%
    10:00 +28°C° 0 mm 2 mps 753 mmHg 26%
    11:00 +30°C° 0 mm 2 mps 753 mmHg 23%
    12:00 +32°C° 0 mm 2 mps 753 mmHg 20%
    13:00 +35°C° 0 mm 2 mps 752 mmHg 18%
    14:00 +35°C° 0 mm 3 mps 752 mmHg 17%
    15:00 +35°C° 0 mm 4 mps 752 mmHg 17%
    16:00 +35°C° 0 mm 4 mps 751 mmHg 16%
    17:00 +33°C° 0 mm 4 mps 751 mmHg 19%
    18:00 +30°C° 0 mm 4 mps 751 mmHg 21%
    19:00 +28°C° 0 mm 4 mps 752 mmHg 24%
    20:00 +26°C° 0 mm 3 mps 752 mmHg 28%
    21:00 +24°C° 0 mm 3 mps 753 mmHg 32%
    22:00 +21°C° 0 mm 2 mps 753 mmHg 35%
    23:00 +20°C° 0 mm 2 mps 753 mmHg 38%

    29 June, Saturday

    Time Temperature Precipitation Wind Pressure Humidity
    00:00 +19°C° 0 mm 3 mps 753 mmHg 41%
    01:00 +18°C° 0 mm 3 mps 753 mmHg 43%
    02:00 +17°C° 0 mm 2 mps 753 mmHg 46%
    03:00 +15°C° 0 mm 2 mps 753 mmHg 48%
    04:00 +14°C° 0 mm 1 mps 753 mmHg 51%
    05:00 +18°C° 0 mm 1 mps 753 mmHg 45%
    06:00 +20°C° 0 mm 1 mps 753 mmHg 40%
    07:00 +22°C° 0 mm 1 mps 753 mmHg 34%
    08:00 +24°C° 0 mm 2 mps 754 mmHg 30%
    09:00 +27°C° 0 mm 1 mps 753 mmHg 26%
    10:00 +30°C° 0 mm 1 mps 753 mmHg 21%
    11:00 +32°C° 0 mm 2 mps 753 mmHg 19%
    12:00 +34°C° 0 mm 2 mps 752 mmHg 16%
    13:00 +36°C° 0 mm 2 mps 752 mmHg 14%
    14:00 +37°C° 0 mm 2 mps 752 mmHg 14%
    15:00 +37°C° 0 mm 3 mps 751 mmHg 13%
    16:00 +37°C° 0 mm 3 mps 751 mmHg 13%
    17:00 +35°C° 0 mm 3 mps 751 mmHg 15%
    18:00 +33°C° 0 mm 3 mps 751 mmHg 17%
    19:00 +30°C° 0 mm 3 mps 751 mmHg 20%
    20:00 +28°C° 0 mm 3 mps 752 mmHg 23%
    21:00 +25°C° 0 mm 3 mps 752 mmHg 26%
    22:00 +22°C° 0 mm 3 mps 753 mmHg 29%
    23:00 +21°C° 0 mm 3 mps 753 mmHg 32%

    30 June, Sunday

    Time Temperature Precipitation Wind Pressure Humidity
    00:00 +19°C° 0 mm 3 mps 753 mmHg 35%
    01:00 +18°C° 0 mm 3 mps 753 mmHg 39%
    02:00 +17°C° 0 mm 2 mps 753 mmHg 43%
    03:00 +16°C° 0 mm 2 mps 753 mmHg 47%
    04:00 +15°C° 0 mm 1 mps 753 mmHg 51%
    05:00 +17°C° 0 mm 2 mps 753 mmHg 46%
    06:00 +19°C° 0 mm 2 mps 753 mmHg 40%
    07:00 +21°C° 0 mm 2 mps 753 mmHg 35%
    08:00 +25°C° 0 mm 2 mps 753 mmHg 30%
    09:00 +27°C° 0 mm 2 mps 753 mmHg 24%
    10:00 +30°C° 0 mm 2 mps 753 mmHg 19%
    11:00 +32°C° 0 mm 2 mps 752 mmHg 17%
    12:00 +35°C° 0 mm 3 mps 752 mmHg 15%
    13:00 +37°C° 0 mm 3 mps 752 mmHg 14%
    14:00 +37°C° 0 mm 3 mps 751 mmHg 13%
    15:00 +38°C° 0 mm 3 mps 751 mmHg 12%
    16:00 +38°C° 0 mm 4 mps 751 mmHg 11%
    17:00 +36°C° 0 mm 4 mps 751 mmHg 13%
    18:00 +34°C° 0 mm 3 mps 751 mmHg 15%
    19:00 +31°C° 0 mm 3 mps 751 mmHg 18%
    20:00 +28°C° 0 mm 4 mps 752 mmHg 23%
    21:00 +26°C° 0 mm 5 mps 752 mmHg 28%
    22:00 +23°C° 0 mm 5 mps 753 mmHg 33%
    23:00 +21°C° 0 mm 5 mps 753 mmHg 37%

    1 July, Monday

    Time Temperature Precipitation Wind Pressure Humidity
    00:00 +20°C° 0 mm 4 mps 753 mmHg 42%
    01:00 +18°C° 0 mm 3 mps 753 mmHg 47%
    02:00 +17°C° 0 mm 3 mps 753 mmHg 53%
    03:00 +16°C° 0 mm 2 mps 753 mmHg 59%
    04:00 +14°C° 0 mm 1 mps 753 mmHg 65%
    05:00 +16°C° 0 mm 2 mps 753 mmHg 59%
    06:00 +18°C° 0 mm 2 mps 753 mmHg 54%
    07:00 +20°C° 0 mm 2 mps 753 mmHg 48%
    08:00 +24°C° 0 mm 2 mps 753 mmHg 41%
    09:00 +26°C° 0 mm 2 mps 753 mmHg 33%
    10:00 +29°C° 0 mm 2 mps 753 mmHg 26%
    11:00 +31°C° 0 mm 3 mps 752 mmHg 23%
    12:00 +34°C° 0 mm 3 mps 752 mmHg 19%
    13:00 +36°C° 0 mm 3 mps 751 mmHg 15%
    14:00 +36°C° 0 mm 3 mps 751 mmHg 14%
    15:00 +37°C° 0 mm 4 mps 751 mmHg 13%
    16:00 +38°C° 0 mm 4 mps 750 mmHg 11%
    17:00 +35°C° 0 mm 4 mps 750 mmHg 14%
    18:00 +33°C° 0 mm 3 mps 750 mmHg 16%
    19:00 +30°C° 0 mm 3 mps 750 mmHg 18%
    20:00 +28°C° 0 mm 3 mps 751 mmHg 23%
    21:00 +26°C° 0 mm 3 mps 751 mmHg 27%
    22:00 +22°C° 0 mm 3 mps 752 mmHg 32%
    23:00 +21°C° 0 mm 3 mps 752 mmHg 37%
    Show more